Home > Weather > Colima > Past weeks

Flag for Mexico Weather for the Past 2 Weeks in Colima, Colima, Mexico

Now
63 °F

Clear.


Feels Like: 63 °F
Forecast: 62 / 96 °F
Wind: 2 mph from Southeast

Location: Don Miguel / Guadalaj

Current Time: May 4, 2016 at 5:32:31 AM

Latest Report: May 4, 2016 at 4:15 AM


Visibility: 10 mi

Pressure: 29.75 "Hg

Humidity: 34%

Dew Point: 34 °F

Location of ColimaLocation

Historic Weather in Colima — Graph

°F

Colima Temperature Yesterday

Maximum temperature yesterday: 95 °F (at 3:45 PM)
Minimum temperature yesterday: 55 °F (at 7:45 AM)
Average temperature yesterday: 81 °F

High & Low Weather Summary for the Past Weeks

 TemperatureHumidityPressure
High95 °F (May 3, 3:45 PM)77% (Apr 19, 7:50 AM)30.25 "Hg (Apr 19, 7:50 AM)
Low45 °F (Apr 27, 6:46 AM)3% (Apr 30, 3:49 PM)29.60 "Hg (May 3, 3:45 PM)
Average72 °F26%29.99 "Hg
* Reported Apr 19 7:50 AM — May 4 4:15 AM, Colima, Weather by CustomWeather, © 2016

Note: Actual official high and low records may vary slightly from our data, if they occured in-between our weather recording intervals... More about our weather records

Advertising

Colima Weather History for the Previous 24 Hours

Scroll right to see more
 ConditionsComfort  
Time TempWeatherWind HumidityBarometerVisibility
4:15 AM
Wed, May 4
63 °FClear.2 mph34%29.75 "Hg10 mi
3:03 AM64 °FClear.No wind30%30.15 "Hg10 mi
1:55 AM68 °FClear.No wind23%30.16 "Hg10 mi
12:51 AM73 °FClear.8 mph17%29.74 "Hg10 mi
12:03 AM73 °FClear.7 mph16%30.18 "Hg10 mi
8:48 PM
Tue, May 3
84 °FPassing clouds.9 mph11%30.07 "Hg10 mi
7:49 PM90 °FScattered clouds.18 mph8%30.01 "Hg10 mi
5:50 PM93 °FSunny.23 mph9%29.99 "Hg10 mi
4:46 PM95 °FSunny.20 mph9%30.00 "Hg10 mi
3:45 PM95 °FSunny.8 mph8%29.60 "Hg10 mi
2:46 PM91 °FSunny.6 mph9%30.06 "Hg10 mi
1:49 PM90 °FSunny.7 mph11%30.08 "Hg10 mi
11:49 AM82 °FSunny.No wind13%30.13 "Hg10 mi
10:54 AM81 °FSunny.No wind17%30.14 "Hg10 mi
9:52 AM77 °FSunny.No wind22%29.76 "Hg10 mi
7:45 AM55 °FClear.No wind47%30.09 "Hg10 mi
Weather by CustomWeather, © 2016

See weather overviewHow to use our weather pages